Regional Weather Roundup
Issued by NWS Cleveland, OH

Home | Current Version | Previous Version | Graphics & Text | Print | Product List | Glossary On
Versions: 1 2 3 4 5 6 7 8 9 10 11 12 13 14 15 16 17 18 19 20 21 22 23 24 25 26 27 28 29 30 31 32 33 34 35 36 37 38 39 40 41 42 43 44 45 46 47 48 49 50
000
ASUS41 KCLE 302002
RWRCLE
OHIO REGIONAL WEATHER ROUNDUP
NATIONAL WEATHER SERVICE CLEVELAND, OH
400 PM EDT SAT AUG 30 2014

NOTE: "FAIR" INDICATES FEW OR NO CLOUDS BELOW 12,000 FEET WITH NO
SIGNIFICANT WEATHER AND/OR OBSTRUCTIONS TO VISIBILITY.

OHZ001>008-015>018-024>027-034-035-043-044-302100-
   NORTHWEST OHIO

CITY           SKY/WX    TMP DP  RH WIND       PRES   REMARKS
DEFIANCE       PTSUNNY   84  68  58 S21G29    29.93F
FINDLAY        PTSUNNY   82  68  62 S22G30    29.97F
TOLEDO EXPRESS PTSUNNY   85  68  56 SW12      29.93F
TOLEDO EXEC    PTSUNNY   87  66  49 SW18G28   29.94F
LIMA           PTSUNNY   79  69  71 S16G24    30.00S
$$

OHZ009>014-019>023-028>033-038-089-302100-
   NORTHEAST OHIO

CITY           SKY/WX    TMP DP  RH WIND       PRES   REMARKS
CLE-HOPKINS    PTSUNNY   88  66  48 SW18G24   29.99F HX  90
CLE-LAKEFRONT  PTSUNNY   88  63  43 S17G29    29.95F
CUY CO. ARPT   CLOUDY    90  70  51 SW14G23   29.99F HX  95
LORAIN-ELYRIA  PTSUNNY   88  63  43 SW20G28   29.98F
ASHTABULA      PTSUNNY   86  64  47 SW14G21   30.00F
AKRON-CANTON   PTSUNNY   88  63  43 SW14      30.03F
WOOSTER        PTSUNNY   84  65  52 SW13G23   30.03F
MANSFIELD      CLOUDY    84  63  49 SW13G22   30.02F
YOUNGSTOWN     PTSUNNY   87  66  49 SW13      30.04F
$$

OHZ042-051>053-060>062-070>072-077>081-302100-
  SOUTHWEST OHIO

CITY           SKY/WX    TMP DP  RH WIND       PRES   REMARKS
CINC-COVINGTON PTSUNNY   85  66  53 SW8       30.03F
CINC-LUNKEN    PTSUNNY   89  68  49 SW12      30.01F HX  93
HAMILTON       PTSUNNY   86  69  56 CALM      30.02F HX  90
DAYTON         CLOUDY    80  69  69 W9        30.04F
WRIGHT-PAT AFB PTSUNNY   83  70  64 W9        30.02F
DAYTON GENERAL PTSUNNY   84  68  58 VRB7      30.02F
WILMINGTON     PTSUNNY   84  65  52 SW10      30.03F
$$

OHZ036-037-039>041-045>050-054>059-063>069-073>076-082>088-302100-
  CENTRAL AND SOUTHEAST OHIO

CITY           SKY/WX    TMP DP  RH WIND       PRES   REMARKS
COLUMBUS       PTSUNNY   92  63  38 SW14G22   30.02F HX  93
OSU AIRPORT    PTSUNNY   87  65  47 S13       30.02F
BOLTON FIELD   NOT AVBL
RICKENBACK AFB MOSUNNY   92  55  29 SW14G22   30.01F
NEWARK         MOSUNNY   87  66  49 SW12G17   30.02F
MARION         PTSUNNY   84  66  54 SW13      30.01F
LANCASTER      PTSUNNY   88  63  43 SW13G22   30.03F
ZANESVILLE     MOSUNNY   88  63  43 SW10G20   30.04F
NEW PHILLY     MOSUNNY   85  69  58 S9        30.04F
$$



USA.gov is the U.S. government's official web portal to all federal, state and local government web resources and services.